| time (UTC) | temp C | wind direction | speed KPH | gust KPH | rain 1hr cm | rain 24hr cm | rain mn cm | humidity % | barometer mb |
| 20260902191312 | 35 | 208 | 14.5 | 20.9 | 0.00 | 0.00 | 0.00 | 54 | 1012.8 |
| 20260902190807 | 35 | 234 | 6.4 | 14.5 | 0.00 | 0.00 | 0.00 | 56 | 1013.0 |
| 20260902190306 | 35 | 223 | 6.4 | 11.3 | 0.00 | 0.00 | 0.00 | 54 | 1013.1 |
| 20260902185803 | 35 | 228 | 8.0 | 20.9 | 0.00 | 0.00 | 0.00 | 55 | 1013.1 |
| 20260902185258 | 35 | 204 | 6.4 | 9.7 | 0.00 | 0.00 | 0.00 | 55 | 1013.2 |
| 20260902184754 | 34 | 209 | 8.0 | 14.5 | 0.00 | 0.00 | 0.00 | 58 | 1013.2 |
| 20260902184249 | 34 | 228 | 3.2 | 12.9 | 0.00 | 0.00 | 0.00 | 59 | 1013.1 |
| 20260902183744 | 34 | 212 | 11.3 | 14.5 | 0.00 | 0.00 | 0.00 | 59 | 1013.4 |
| 20260902183240 | 34 | 182 | 11.3 | 12.9 | 0.00 | 0.00 | 0.00 | 57 | 1013.6 |
| 20260902182736 | 33 | 294 | 6.4 | 11.3 | 0.00 | 0.00 | 0.00 | 59 | 1013.4 |
| 20260902182233 | 33 | 219 | 11.3 | 20.9 | 0.00 | 0.00 | 0.00 | 59 | 1013.5 |
| 20260902181729 | 33 | 239 | 9.7 | 17.7 | 0.00 | 0.00 | 0.00 | 58 | 1013.6 |
| 20260902181228 | 33 | 219 | 12.9 | 17.7 | 0.00 | 0.00 | 0.00 | 60 | 1013.7 |
| 20260902180723 | 33 | 229 | 6.4 | 11.3 | 0.00 | 0.00 | 0.00 | 59 | 1013.6 |
| 20260902180219 | 33 | 186 | 9.7 | 12.9 | 0.00 | 0.00 | 0.00 | 59 | 1013.5 |
| 20260902175713 | 33 | 257 | 6.4 | 16.1 | 0.00 | 0.00 | 0.00 | 60 | 1013.5 |
| 20260902175209 | 33 | 214 | 8.0 | 12.9 | 0.00 | 0.00 | 0.00 | 58 | 1013.5 |
| 20260902174705 | 32 | 238 | 8.0 | 16.1 | 0.00 | 0.00 | 0.00 | 59 | 1013.9 |
| 20260902174201 | 33 | 195 | 4.8 | 12.9 | 0.00 | 0.00 | 0.00 | 60 | 1013.9 |
| 20260902173656 | 33 | 207 | 4.8 | 9.7 | 0.00 | 0.00 | 0.00 | 58 | 1013.9 |
| 20260902173151 | 33 | 249 | 8.0 | 9.7 | 0.00 | 0.00 | 0.00 | 59 | 1013.9 |
| 20260902172646 | 32 | 212 | 6.4 | 14.5 | 0.00 | 0.00 | 0.00 | 62 | 1014.1 |
| 20260902172144 | 32 | 171 | 4.8 | 9.7 | 0.00 | 0.00 | 0.00 | 61 | 1013.9 |
| 20260902171640 | 32 | 167 | 11.3 | 20.9 | 0.00 | 0.00 | 0.00 | 61 | 1014.1 |
| 20260902171136 | 32 | 215 | 8.0 | 14.5 | 0.00 | 0.00 | 0.00 | 60 | 1014.2 |
| 20260902170631 | 32 | 230 | 12.9 | 17.7 | 0.00 | 0.00 | 0.00 | 60 | 1014.2 |
| 20260902170127 | 32 | 226 | 4.8 | 11.3 | 0.00 | 0.00 | 0.00 | 60 | 1014.2 |
| 20260902165627 | 32 | 223 | 8.0 | 12.9 | 0.00 | 0.00 | 0.00 | 60 | 1014.5 |
| 20260902165121 | 32 | 219 | 6.4 | 12.9 | 0.00 | 0.00 | 0.00 | 61 | 1014.5 |
| 20260902164616 | 32 | 212 | 8.0 | 11.3 | 0.00 | 0.00 | 0.00 | 61 | 1014.6 |
| 20260902164115 | 31 | 215 | 8.0 | 12.9 | 0.00 | 0.00 | 0.00 | 63 | 1014.3 |
| 20260902163611 | 31 | 218 | 6.4 | 9.7 | 0.00 | 0.00 | 0.00 | 62 | 1014.5 |
| 20260902163109 | 31 | 237 | 8.0 | 17.7 | 0.00 | 0.00 | 0.00 | 61 | 1014.5 |
| 20260902162609 | 31 | 185 | 4.8 | 14.5 | 0.00 | 0.00 | 0.00 | 63 | 1014.5 |
| 20260902162109 | 31 | 166 | 9.7 | 12.9 | 0.00 | 0.00 | 0.00 | 63 | 1014.6 |
| 20260902161604 | 31 | 179 | 8.0 | 16.1 | 0.00 | 0.00 | 0.00 | 63 | 1014.4 |
| 20260902161100 | 31 | 249 | 4.8 | 11.3 | 0.00 | 0.00 | 0.00 | 65 | 1014.3 |
| 20260902160555 | 31 | 198 | 9.7 | 12.9 | 0.00 | 0.00 | 0.00 | 63 | 1014.3 |
| 20260902160051 | 30 | 162 | 8.0 | 11.3 | 0.00 | 0.00 | 0.00 | 64 | 1014.6 |
| 20260902155544 | 31 | 212 | 6.4 | 11.3 | 0.00 | 0.00 | 0.00 | 65 | 1014.5 |
| 20260902155042 | 30 | 248 | 1.6 | 11.3 | 0.00 | 0.00 | 0.00 | 65 | 1014.4 |
| 20260902154538 | 31 | 215 | 6.4 | 9.7 | 0.00 | 0.00 | 0.00 | 65 | 1014.4 |
| 20260902154032 | 30 | 206 | 4.8 | 9.7 | 0.00 | 0.00 | 0.00 | 66 | 1014.5 |
| 20260902153531 | 30 | 144 | 6.4 | 9.7 | 0.00 | 0.00 | 0.00 | 67 | 1014.7 |
| 20260902153027 | 30 | 202 | 6.4 | 9.7 | 0.00 | 0.00 | 0.00 | 68 | 1014.6 |
| 20260902152523 | 30 | 162 | 6.4 | 11.3 | 0.00 | 0.00 | 0.00 | 68 | 1014.5 |
| 20260902152018 | 30 | 187 | 4.8 | 4.8 | 0.00 | 0.00 | 0.00 | 68 | 1014.7 |
| 20260902151514 | 30 | 167 | 4.8 | 11.3 | 0.00 | 0.00 | 0.00 | 70 | 1014.5 |
| 20260902151013 | 29 | 195 | 4.8 | 8.0 | 0.00 | 0.00 | 0.00 | 70 | 1014.4 |
| 20260902150510 | 29 | 147 | 4.8 | 8.0 | 0.00 | 0.00 | 0.00 | 71 | 1014.5 |
| 20260902150009 | 28 | 198 | 4.8 | 9.7 | 0.00 | 0.00 | 0.00 | 72 | 1014.4 |
| 20260902145504 | 28 | 159 | 4.8 | 11.3 | 0.00 | 0.00 | 0.00 | 73 | 1014.4 |
| 20260902144959 | 28 | 215 | 4.8 | 9.7 | 0.00 | 0.00 | 0.00 | 73 | 1014.5 |
| 20260902144456 | 28 | 190 | 4.8 | 4.8 | 0.00 | 0.00 | 0.00 | 74 | 1014.4 |
| 20260902143956 | 28 | 166 | 8.0 | 11.3 | 0.00 | 0.00 | 0.00 | 75 | 1014.5 |
| 20260902143451 | 27 | 172 | 6.4 | 11.3 | 0.00 | 0.00 | 0.00 | 75 | 1014.3 |
| 20260902142946 | 27 | 177 | 6.4 | 9.7 | 0.00 | 0.00 | 0.00 | 75 | 1014.4 |
| 20260902142443 | 27 | 203 | 6.4 | 9.7 | 0.00 | 0.00 | 0.00 | 76 | 1014.5 |
| 20260902141937 | 27 | 275 | 1.6 | 11.3 | 0.00 | 0.00 | 0.00 | 77 | 1014.7 |
| 20260902141433 | 27 | 152 | 9.7 | 12.9 | 0.00 | 0.00 | 0.00 | 77 | 1014.5 |
| 20260902140932 | 27 | 150 | 3.2 | 9.7 | 0.00 | 0.00 | 0.00 | 78 | 1014.7 |
| 20260902140428 | 27 | 227 | 3.2 | 8.0 | 0.00 | 0.00 | 0.00 | 78 | 1014.5 |
| 20260902135927 | 26 | 154 | 6.4 | 11.3 | 0.00 | 0.00 | 0.00 | 80 | 1014.6 |
| 20260902135423 | 26 | 194 | 4.8 | 9.7 | 0.00 | 0.00 | 0.00 | 80 | 1014.5 |
| 20260902134922 | 26 | 178 | 8.0 | 9.7 | 0.00 | 0.00 | 0.00 | 79 | 1014.5 |
| 20260902134418 | 26 | 218 | 3.2 | 9.7 | 0.00 | 0.00 | 0.00 | 79 | 1014.5 |
| 20260902133913 | 25 | 259 | 1.6 | 4.8 | 0.00 | 0.00 | 0.00 | 80 | 1014.6 |
| 20260902133412 | 25 | 211 | 3.2 | 8.0 | 0.00 | 0.00 | 0.00 | 80 | 1014.6 |
| 20260902132907 | 25 | 177 | 4.8 | 9.7 | 0.00 | 0.00 | 0.00 | 81 | 1014.8 |
| 20260902132402 | 25 | 181 | 4.8 | 8.0 | 0.00 | 0.00 | 0.00 | 82 | 1014.6 |
| 20260902131857 | 25 | 182 | 4.8 | 8.0 | 0.00 | 0.00 | 0.00 | 82 | 1014.6 |
| 20260902131355 | 25 | 256 | 1.6 | 1.6 | 0.00 | 0.00 | 0.00 | 79 | 1014.7 |
| 20260902130853 | 25 | 273 | 0.0 | 3.2 | 0.00 | 0.00 | 0.00 | 81 | 1014.8 |
| 20260902130350 | 25 | 174 | 8.0 | 8.0 | 0.00 | 0.00 | 0.00 | 83 | 1014.9 |
| 20260902125844 | 23 | 180 | 4.8 | 8.0 | 0.00 | 0.00 | 0.00 | 85 | 1014.8 |
| 20260902125341 | 23 | 204 | 3.2 | 3.2 | 0.00 | 0.00 | 0.00 | 85 | 1015.0 |
| 20260902124836 | 23 | 194 | 3.2 | 4.8 | 0.00 | 0.00 | 0.00 | 84 | 1015.0 |
| 20260902124332 | 23 | 259 | 1.6 | 3.2 | 0.00 | 0.00 | 0.00 | 85 | 1015.1 |
| 20260902123827 | 23 | 281 | 0.0 | 0.0 | 0.00 | 0.00 | 0.00 | 86 | 1015.2 |
| 20260902123323 | 23 | 281 | 0.0 | 1.6 | 0.00 | 0.00 | 0.00 | 87 | 1015.0 |
| 20260902122822 | 22 | 258 | 1.6 | 4.8 | 0.00 | 0.00 | 0.00 | 88 | 1014.8 |
| 20260902122318 | 22 | 198 | 3.2 | 3.2 | 0.00 | 0.00 | 0.00 | 89 | 1015.0 |
| 20260902121817 | 22 | 244 | 3.2 | 3.2 | 0.00 | 0.00 | 0.00 | 90 | 1015.0 |
| 20260902121313 | 22 | 319 | 0.0 | 0.0 | 0.00 | 0.00 | 0.00 | 90 | 1014.9 |
| 20260902120808 | 22 | 333 | 4.8 | 4.8 | 0.00 | 0.00 | 0.00 | 89 | 1015.2 |
| 20260902120305 | 22 | 246 | 1.6 | 4.8 | 0.00 | 0.00 | 0.00 | 87 | 1014.8 |
| 20260902115759 | 22 | 270 | 1.6 | 3.2 | 0.00 | 0.00 | 0.00 | 89 | 1014.8 |
| 20260902115256 | 22 | 325 | 3.2 | 3.2 | 0.00 | 0.00 | 0.00 | 89 | 1014.9 |
| 20260902114752 | 22 | 199 | 3.2 | 4.8 | 0.00 | 0.00 | 0.00 | 86 | 1014.8 |
| 20260902114248 | 23 | 296 | 0.0 | 1.6 | 0.00 | 0.00 | 0.00 | 87 | 1014.8 |
| 20260902113747 | 23 | 313 | 0.0 | 0.0 | 0.00 | 0.00 | 0.00 | 85 | 1014.8 |
| 20260902113243 | 23 | 285 | 0.0 | 0.0 | 0.00 | 0.00 | 0.00 | 83 | 1014.8 |
| 20260902112742 | 23 | 256 | 1.6 | 3.2 | 0.00 | 0.00 | 0.00 | 85 | 1014.8 |
| 20260902112239 | 23 | 336 | 1.6 | 3.2 | 0.00 | 0.00 | 0.00 | 86 | 1014.8 |
| 20260902111734 | 23 | 347 | 0.0 | 1.6 | 0.00 | 0.00 | 0.00 | 85 | 1014.6 |
| 20260902111231 | 23 | 290 | 0.0 | 1.6 | 0.00 | 0.00 | 0.00 | 83 | 1014.8 |
| 20260902110726 | 23 | 275 | 1.6 | 3.2 | 0.00 | 0.00 | 0.00 | 84 | 1014.6 |
| 20260902110222 | 23 | 312 | 0.0 | 1.6 | 0.00 | 0.00 | 0.00 | 83 | 1014.8 |
| 20260902105721 | 23 | 311 | 0.0 | 0.0 | 0.00 | 0.00 | 0.00 | 81 | 1014.8 |
| 20260902105211 | 23 | 316 | 0.0 | 1.6 | 0.00 | 0.00 | 0.00 | 82 | 1014.9 |
| 20260902104706 | 24 | 301 | 0.0 | 0.0 | 0.00 | 0.00 | 0.00 | 81 | 1014.8 |
| 20260902104202 | 24 | 276 | 3.2 | 3.2 | 0.00 | 0.00 | 0.00 | 79 | 1014.7 |
| 20260902103655 | 24 | 308 | 0.0 | 9.7 | 0.00 | 0.00 | 0.00 | 79 | 1015.0 |
| 20260902103151 | 24 | 35 | 8.0 | 9.7 | 0.00 | 0.00 | 0.00 | 81 | 1015.2 |
| 20260902102647 | 23 | 296 | 1.6 | 4.8 | 0.00 | 0.00 | 0.00 | 82 | 1014.7 |
| 20260902102144 | 23 | 14 | 9.7 | 14.5 | 0.00 | 0.00 | 0.00 | 83 | 1014.7 |
| 20260902101639 | 23 | 32 | 6.4 | 17.7 | 0.00 | 0.00 | 0.00 | 83 | 1014.6 |
| 20260902101138 | 23 | 341 | 8.0 | 11.3 | 0.00 | 0.00 | 0.00 | 84 | 1014.6 |
| 20260902100633 | 23 | 232 | 4.8 | 8.0 | 0.00 | 0.00 | 0.00 | 83 | 1013.6 |
| 20260902100128 | 23 | 201 | 4.8 | 8.0 | 0.00 | 0.00 | 0.00 | 83 | 1013.7 |
| 20260902095627 | 23 | 206 | 4.8 | 8.0 | 0.00 | 0.00 | 0.00 | 83 | 1013.6 |
| 20260902095127 | 23 | 222 | 4.8 | 8.0 | 0.00 | 0.00 | 0.00 | 84 | 1013.5 |
| 20260902094622 | 23 | 217 | 4.8 | 4.8 | 0.00 | 0.00 | 0.00 | 83 | 1013.5 |
| 20260902094118 | 23 | 200 | 4.8 | 8.0 | 0.00 | 0.00 | 0.00 | 83 | 1013.5 |
| 20260902093612 | 23 | 206 | 6.4 | 8.0 | 0.00 | 0.00 | 0.00 | 83 | 1013.4 |
| 20260902093106 | 23 | 207 | 4.8 | 8.0 | 0.00 | 0.00 | 0.00 | 83 | 1013.5 |
| 20260902092601 | 23 | 229 | 4.8 | 8.0 | 0.00 | 0.00 | 0.00 | 83 | 1013.4 |
| 20260902092056 | 23 | 218 | 4.8 | 8.0 | 0.00 | 0.00 | 0.00 | 82 | 1013.4 |
| 20260902091551 | 23 | 207 | 6.4 | 8.0 | 0.00 | 0.00 | 0.00 | 82 | 1013.5 |
| 20260902091047 | 24 | 190 | 4.8 | 4.8 | 0.00 | 0.00 | 0.00 | 82 | 1013.4 |
| 20260902090542 | 24 | 220 | 3.2 | 8.0 | 0.00 | 0.00 | 0.00 | 81 | 1013.3 |
| 20260902090041 | 24 | 218 | 4.8 | 8.0 | 0.00 | 0.00 | 0.00 | 81 | 1013.7 |
| 20260902085536 | 24 | 230 | 4.8 | 9.7 | 0.00 | 0.00 | 0.00 | 81 | 1013.4 |
| 20260902085031 | 24 | 203 | 4.8 | 11.3 | 0.00 | 0.00 | 0.00 | 81 | 1013.4 |
| 20260902084522 | 24 | 214 | 6.4 | 8.0 | 0.00 | 0.00 | 0.00 | 81 | 1013.4 |
| 20260902084017 | 24 | 197 | 6.4 | 8.0 | 0.00 | 0.00 | 0.00 | 81 | 1013.5 |
| 20260902083512 | 24 | 228 | 4.8 | 4.8 | 0.00 | 0.00 | 0.00 | 80 | 1013.5 |
| 20260902083007 | 24 | 201 | 4.8 | 8.0 | 0.00 | 0.00 | 0.00 | 80 | 1013.5 |
| 20260902082502 | 24 | 182 | 4.8 | 8.0 | 0.00 | 0.00 | 0.00 | 80 | 1013.3 |
| 20260902081958 | 25 | 221 | 3.2 | 4.8 | 0.00 | 0.00 | 0.00 | 80 | 1013.5 |
| 20260902081455 | 25 | 213 | 6.4 | 8.0 | 0.00 | 0.00 | 0.00 | 79 | 1013.3 |
| 20260902080949 | 25 | 216 | 6.4 | 8.0 | 0.00 | 0.00 | 0.00 | 79 | 1013.6 |
| 20260902080445 | 25 | 217 | 4.8 | 9.7 | 0.00 | 0.00 | 0.00 | 79 | 1013.2 |
| 20260902075939 | 25 | 197 | 6.4 | 9.7 | 0.00 | 0.00 | 0.00 | 78 | 1013.3 |
| 20260902075436 | 25 | 188 | 6.4 | 9.7 | 0.00 | 0.00 | 0.00 | 78 | 1013.5 |
| 20260902074931 | 25 | 215 | 4.8 | 9.7 | 0.00 | 0.00 | 0.00 | 78 | 1013.3 |
| 20260902074426 | 25 | 211 | 4.8 | 8.0 | 0.00 | 0.00 | 0.00 | 77 | 1013.3 |
| 20260902073921 | 25 | 219 | 4.8 | 8.0 | 0.00 | 0.00 | 0.00 | 77 | 1013.2 |
| 20260902073417 | 25 | 184 | 6.4 | 11.3 | 0.00 | 0.00 | 0.00 | 76 | 1013.3 |
| 20260902072913 | 25 | 195 | 9.7 | 11.3 | 0.00 | 0.00 | 0.00 | 76 | 1013.2 |
| 20260902072409 | 25 | 214 | 8.0 | 9.7 | 0.00 | 0.00 | 0.00 | 76 | 1013.1 |
| 20260902071905 | 25 | 246 | 4.8 | 8.0 | 0.00 | 0.00 | 0.00 | 77 | 1012.9 |
| 20260902071404 | 25 | 245 | 4.8 | 9.7 | 0.00 | 0.00 | 0.00 | 77 | 1013.0 |
| 20260902070901 | 25 | 216 | 4.8 | 8.0 | 0.00 | 0.00 | 0.00 | 77 | 1013.1 |
| 20260902070356 | 25 | 190 | 6.4 | 9.7 | 0.00 | 0.00 | 0.00 | 76 | 1012.8 |
| 20260902065854 | 25 | 201 | 6.4 | 9.7 | 0.00 | 0.00 | 0.00 | 76 | 1012.9 |
| 20260902065344 | 26 | 157 | 4.8 | 8.0 | 0.00 | 0.00 | 0.00 | 75 | 1012.8 |
| 20260902064839 | 26 | 204 | 4.8 | 8.0 | 0.00 | 0.00 | 0.00 | 75 | 1012.7 |
| 20260902064335 | 25 | 203 | 4.8 | 8.0 | 0.00 | 0.00 | 0.00 | 76 | 1012.7 |
| 20260902063831 | 26 | 223 | 6.4 | 9.7 | 0.00 | 0.00 | 0.00 | 75 | 1012.8 |
| 20260902063330 | 26 | 205 | 6.4 | 9.7 | 0.00 | 0.00 | 0.00 | 75 | 1012.7 |
| 20260902062825 | 26 | 218 | 4.8 | 8.0 | 0.00 | 0.00 | 0.00 | 75 | 1012.7 |
| 20260902062320 | 25 | 189 | 4.8 | 8.0 | 0.00 | 0.00 | 0.00 | 75 | 1012.9 |
| 20260902061819 | 26 | 217 | 4.8 | 4.8 | 0.00 | 0.00 | 0.00 | 75 | 1012.7 |
| 20260902061315 | 26 | 188 | 6.4 | 9.7 | 0.00 | 0.00 | 0.00 | 75 | 1013.0 |
| 20260902060811 | 26 | 214 | 4.8 | 4.8 | 0.00 | 0.00 | 0.00 | 75 | 1013.1 |
| 20260902060306 | 26 | 211 | 3.2 | 4.8 | 0.00 | 0.00 | 0.00 | 76 | 1013.1 |
| 20260902055802 | 26 | 228 | 3.2 | 8.0 | 0.00 | 0.00 | 0.00 | 75 | 1013.0 |
| 20260902055258 | 26 | 184 | 4.8 | 8.0 | 0.00 | 0.00 | 0.00 | 76 | 1013.1 |
| 20260902054752 | 26 | 228 | 4.8 | 8.0 | 0.00 | 0.00 | 0.00 | 76 | 1013.1 |
| 20260902054248 | 26 | 221 | 4.8 | 4.8 | 0.00 | 0.00 | 0.00 | 75 | 1013.3 |
| 20260902053744 | 26 | 199 | 6.4 | 8.0 | 0.00 | 0.00 | 0.00 | 75 | 1013.2 |
| 20260902053243 | 26 | 211 | 6.4 | 11.3 | 0.00 | 0.00 | 0.00 | 75 | 1013.2 |
| 20260902052742 | 26 | 234 | 3.2 | 8.0 | 0.00 | 0.00 | 0.00 | 76 | 1013.2 |
| 20260902052232 | 26 | 201 | 4.8 | 8.0 | 0.00 | 0.00 | 0.00 | 76 | 1013.5 |
| 20260902051731 | 26 | 211 | 4.8 | 8.0 | 0.00 | 0.00 | 0.00 | 77 | 1013.3 |
| 20260902051221 | 26 | 242 | 3.2 | 3.2 | 0.00 | 0.00 | 0.00 | 76 | 1013.2 |
| 20260902050715 | 26 | 214 | 3.2 | 8.0 | 0.00 | 0.00 | 0.00 | 76 | 1013.3 |
| 20260902050210 | 26 | 192 | 4.8 | 4.8 | 0.00 | 0.00 | 0.00 | 76 | 1013.3 |
| 20260902045705 | 26 | 215 | 3.2 | 4.8 | 0.00 | 0.00 | 0.00 | 76 | 1013.4 |
| 20260902045201 | 26 | 225 | 4.8 | 8.0 | 0.00 | 0.00 | 0.00 | 75 | 1013.4 |
| 20260902044656 | 26 | 218 | 1.6 | 4.8 | 0.00 | 0.00 | 0.00 | 75 | 1013.4 |
| 20260902044152 | 26 | 177 | 4.8 | 8.0 | 0.00 | 0.00 | 0.00 | 75 | 1013.5 |
| 20260902043647 | 26 | 193 | 4.8 | 8.0 | 0.00 | 0.00 | 0.00 | 74 | 1013.3 |
| 20260902043142 | 26 | 183 | 3.2 | 4.8 | 0.00 | 0.00 | 0.00 | 74 | 1013.4 |
| 20260902042641 | 26 | 203 | 4.8 | 4.8 | 0.00 | 0.00 | 0.00 | 74 | 1013.3 |
| 20260902042136 | 26 | 199 | 3.2 | 4.8 | 0.00 | 0.00 | 0.00 | 75 | 1013.5 |
| 20260902041631 | 26 | 242 | 3.2 | 3.2 | 0.00 | 0.00 | 0.00 | 76 | 1013.4 |
| 20260902041126 | 26 | 217 | 3.2 | 3.2 | 0.00 | 0.00 | 0.00 | 76 | 1013.6 |
| 20260902040625 | 26 | 243 | 3.2 | 3.2 | 0.00 | 0.00 | 0.00 | 74 | 1013.5 |
| 20260902040121 | 27 | 246 | 1.6 | 3.2 | 0.00 | 0.00 | 0.00 | 73 | 1013.5 |
| 20260902035618 | 27 | 234 | 3.2 | 4.8 | 0.00 | 0.00 | 0.00 | 72 | 1013.4 |
| 20260902035113 | 27 | 195 | 3.2 | 4.8 | 0.00 | 0.00 | 0.00 | 72 | 1013.6 |
| 20260902034612 | 27 | 191 | 4.8 | 8.0 | 0.00 | 0.00 | 0.00 | 72 | 1013.5 |
| 20260902034107 | 27 | 206 | 3.2 | 8.0 | 0.00 | 0.00 | 0.00 | 73 | 1013.4 |
| 20260902033606 | 27 | 187 | 4.8 | 8.0 | 0.00 | 0.00 | 0.00 | 74 | 1013.3 |
| 20260902033101 | 26 | 176 | 6.4 | 9.7 | 0.00 | 0.00 | 0.00 | 75 | 1013.3 |
| 20260902032600 | 26 | 195 | 4.8 | 8.0 | 0.00 | 0.00 | 0.00 | 76 | 1013.3 |
| 20260902032055 | 26 | 195 | 4.8 | 4.8 | 0.00 | 0.00 | 0.00 | 77 | 1013.2 |
| 20260902031549 | 26 | 175 | 4.8 | 8.0 | 0.00 | 0.00 | 0.00 | 77 | 1013.3 |
| 20260902031045 | 26 | 171 | 4.8 | 8.0 | 0.00 | 0.00 | 0.00 | 76 | 1013.1 |
| 20260902030540 | 27 | 183 | 4.8 | 8.0 | 0.00 | 0.00 | 0.00 | 76 | 1013.1 |
| 20260902030040 | 27 | 191 | 4.8 | 4.8 | 0.00 | 0.00 | 0.00 | 75 | 1013.1 |
| 20260902025534 | 27 | 175 | 4.8 | 4.8 | 0.00 | 0.00 | 0.00 | 75 | 1013.2 |
| 20260902025029 | 27 | 170 | 3.2 | 4.8 | 0.00 | 0.00 | 0.00 | 75 | 1013.2 |
| 20260902024525 | 27 | 172 | 4.8 | 4.8 | 0.00 | 0.00 | 0.00 | 74 | 1013.3 |
| 20260902024025 | 27 | 185 | 4.8 | 4.8 | 0.00 | 0.00 | 0.00 | 75 | 1013.1 |
| 20260902023521 | 27 | 164 | 4.8 | 8.0 | 0.00 | 0.00 | 0.00 | 74 | 1013.1 |
| 20260902023015 | 27 | 188 | 3.2 | 4.8 | 0.00 | 0.00 | 0.00 | 74 | 1013.2 |
| 20260902022510 | 27 | 179 | 4.8 | 4.8 | 0.00 | 0.00 | 0.00 | 74 | 1012.9 |
| 20260902022005 | 27 | 165 | 3.2 | 4.8 | 0.00 | 0.00 | 0.00 | 73 | 1013.0 |
| 20260902021500 | 27 | 198 | 3.2 | 3.2 | 0.00 | 0.00 | 0.00 | 72 | 1013.0 |
| 20260902020955 | 28 | 200 | 3.2 | 4.8 | 0.00 | 0.00 | 0.00 | 71 | 1012.7 |
| 20260902020451 | 28 | 199 | 4.8 | 8.0 | 0.00 | 0.00 | 0.00 | 71 | 1013.0 |
| 20260902015947 | 28 | 172 | 4.8 | 8.0 | 0.00 | 0.00 | 0.00 | 70 | 1012.8 |
| 20260902015443 | 28 | 182 | 4.8 | 4.8 | 0.00 | 0.00 | 0.00 | 71 | 1012.6 |
| 20260902014938 | 28 | 191 | 3.2 | 4.8 | 0.00 | 0.00 | 0.00 | 70 | 1012.5 |
| 20260902014435 | 28 | 195 | 3.2 | 4.8 | 0.00 | 0.00 | 0.00 | 70 | 1012.6 |
| 20260902013933 | 28 | 191 | 4.8 | 4.8 | 0.00 | 0.00 | 0.00 | 70 | 1012.5 |
| 20260902013429 | 28 | 195 | 3.2 | 3.2 | 0.00 | 0.00 | 0.00 | 69 | 1012.6 |
| 20260902012924 | 28 | 186 | 4.8 | 4.8 | 0.00 | 0.00 | 0.00 | 69 | 1012.4 |
| 20260902012420 | 28 | 185 | 4.8 | 4.8 | 0.00 | 0.00 | 0.00 | 69 | 1012.3 |
| 20260902011916 | 28 | 189 | 3.2 | 4.8 | 0.00 | 0.00 | 0.00 | 69 | 1012.6 |
| 20260902011410 | 29 | 192 | 3.2 | 4.8 | 0.00 | 0.00 | 0.00 | 69 | 1012.5 |
| 20260902010910 | 29 | 231 | 3.2 | 4.8 | 0.00 | 0.00 | 0.00 | 69 | 1012.3 |
| 20260902010405 | 29 | 257 | 3.2 | 8.0 | 0.00 | 0.00 | 0.00 | 69 | 1012.2 |
| 20260902005904 | 29 | 144 | 3.2 | 4.8 | 0.00 | 0.00 | 0.00 | 69 | 1012.4 |
| 20260902005358 | 30 | 227 | 1.6 | 4.8 | 0.00 | 0.00 | 0.00 | 68 | 1012.2 |
| 20260902004854 | 30 | 165 | 4.8 | 8.0 | 0.00 | 0.00 | 0.00 | 67 | 1012.4 |
| 20260902004353 | 30 | 258 | 1.6 | 3.2 | 0.00 | 0.00 | 0.00 | 68 | 1012.3 |
| 20260902003849 | 30 | 201 | 3.2 | 3.2 | 0.00 | 0.00 | 0.00 | 66 | 1012.4 |
| 20260902003344 | 30 | 244 | 3.2 | 9.7 | 0.00 | 0.00 | 0.00 | 66 | 1012.4 |
| 20260902002840 | 31 | 255 | 3.2 | 3.2 | 0.00 | 0.00 | 0.00 | 65 | 1012.4 |
| 20260902002339 | 31 | 198 | 3.2 | 4.8 | 0.00 | 0.00 | 0.00 | 64 | 1012.4 |
| 20260902001835 | 31 | 160 | 4.8 | 8.0 | 0.00 | 0.00 | 0.00 | 63 | 1012.4 |
| 20260902001330 | 31 | 192 | 4.8 | 8.0 | 0.00 | 0.00 | 0.00 | 62 | 1012.5 |
| 20260902000824 | 31 | 258 | 1.6 | 4.8 | 0.00 | 0.00 | 0.00 | 62 | 1012.7 |
| 20260902000324 | 32 | 243 | 4.8 | 8.0 | 0.00 | 0.00 | 0.00 | 61 | 1012.6 |
| 20260901235819 | 32 | 236 | 3.2 | 9.7 | 0.00 | 0.00 | 0.00 | 61 | 1012.5 |
| 20260901235314 | 32 | 192 | 4.8 | 4.8 | 0.00 | 0.00 | 0.00 | 61 | 1012.6 |
| 20260901234813 | 32 | 207 | 6.4 | 8.0 | 0.00 | 0.00 | 0.00 | 60 | 1012.5 |
| 20260901234308 | 33 | 247 | 3.2 | 3.2 | 0.00 | 0.00 | 0.00 | 60 | 1012.6 |
| 20260901233803 | 33 | 222 | 6.4 | 11.3 | 0.00 | 0.00 | 0.00 | 59 | 1012.6 |
| 20260901233253 | 33 | 190 | 3.2 | 8.0 | 0.00 | 0.00 | 0.00 | 59 | 1012.5 |
| 20260901232748 | 33 | 250 | 3.2 | 4.8 | 0.00 | 0.00 | 0.00 | 59 | 1012.5 |
| 20260901232238 | 33 | 215 | 3.2 | 8.0 | 0.00 | 0.00 | 0.00 | 59 | 1012.4 |
| 20260901231734 | 33 | 219 | 4.8 | 9.7 | 0.00 | 0.00 | 0.00 | 58 | 1012.4 |
| 20260901231230 | 34 | 171 | 4.8 | 8.0 | 0.00 | 0.00 | 0.00 | 57 | 1012.5 |
| 20260901230725 | 34 | 176 | 6.4 | 8.0 | 0.00 | 0.00 | 0.00 | 57 | 1012.4 |
| 20260901230219 | 35 | 190 | 4.8 | 9.7 | 0.00 | 0.00 | 0.00 | 57 | 1012.6 |
| 20260901225715 | 35 | 229 | 4.8 | 9.7 | 0.00 | 0.00 | 0.00 | 56 | 1012.4 |
| 20260901225209 | 35 | 249 | 3.2 | 4.8 | 0.00 | 0.00 | 0.00 | 56 | 1012.7 |
| 20260901224705 | 35 | 173 | 6.4 | 8.0 | 0.00 | 0.00 | 0.00 | 55 | 1012.6 |
| 20260901224201 | 35 | 217 | 6.4 | 9.7 | 0.00 | 0.00 | 0.00 | 55 | 1012.6 |
| 20260901223657 | 35 | 264 | 4.8 | 8.0 | 0.00 | 0.00 | 0.00 | 56 | 1012.7 |
| 20260901223151 | 35 | 222 | 8.0 | 9.7 | 0.00 | 0.00 | 0.00 | 54 | 1012.6 |
| 20260901222648 | 35 | 213 | 4.8 | 9.7 | 0.00 | 0.00 | 0.00 | 55 | 1012.7 |
| 20260901222144 | 35 | 233 | 9.7 | 9.7 | 0.00 | 0.00 | 0.00 | 53 | 1012.7 |
| 20260901221639 | 35 | 228 | 9.7 | 11.3 | 0.00 | 0.00 | 0.00 | 52 | 1012.7 |
| 20260901221135 | 35 | 239 | 8.0 | 11.3 | 0.00 | 0.00 | 0.00 | 52 | 1012.5 |
| 20260901220634 | 35 | 216 | 8.0 | 11.3 | 0.00 | 0.00 | 0.00 | 52 | 1012.8 |
| 20260901220134 | 35 | 207 | 8.0 | 11.3 | 0.00 | 0.00 | 0.00 | 51 | 1012.8 |
| 20260901215632 | 35 | 216 | 6.4 | 12.9 | 0.00 | 0.00 | 0.00 | 51 | 1012.6 |
| 20260901215126 | 36 | 245 | 6.4 | 9.7 | 0.00 | 0.00 | 0.00 | 52 | 1012.8 |
| 20260901214624 | 35 | 249 | 6.4 | 12.9 | 0.00 | 0.00 | 0.00 | 50 | 1012.9 |
| 20260901214119 | 36 | 233 | 14.5 | 16.1 | 0.00 | 0.00 | 0.00 | 49 | 1012.8 |
| 20260901213613 | 35 | 207 | 8.0 | 12.9 | 0.00 | 0.00 | 0.00 | 51 | 1012.8 |
| 20260901213108 | 36 | 212 | 6.4 | 12.9 | 0.00 | 0.00 | 0.00 | 50 | 1012.8 |
| 20260901212608 | 36 | 210 | 8.0 | 11.3 | 0.00 | 0.00 | 0.00 | 49 | 1012.8 |
| 20260901212104 | 35 | 167 | 9.7 | 12.9 | 0.00 | 0.00 | 0.00 | 49 | 1012.8 |
| 20260901211558 | 35 | 212 | 11.3 | 17.7 | 0.00 | 0.00 | 0.00 | 49 | 1012.7 |
| 20260901211055 | 35 | 208 | 11.3 | 14.5 | 0.00 | 0.00 | 0.00 | 49 | 1012.7 |
| 20260901210550 | 36 | 192 | 11.3 | 16.1 | 0.00 | 0.00 | 0.00 | 50 | 1012.9 |
| 20260901210046 | 36 | 296 | 6.4 | 9.7 | 0.00 | 0.00 | 0.00 | 50 | 1012.9 |
| 20260901205541 | 36 | 217 | 9.7 | 16.1 | 0.00 | 0.00 | 0.00 | 49 | 1013.1 |
| 20260901205036 | 35 | 230 | 8.0 | 14.5 | 0.00 | 0.00 | 0.00 | 50 | 1012.9 |
| 20260901204532 | 36 | 227 | 9.7 | 17.7 | 0.00 | 0.00 | 0.00 | 49 | 1013.0 |
| 20260901204026 | 35 | 207 | 11.3 | 20.9 | 0.00 | 0.00 | 0.00 | 50 | 1013.2 |
| 20260901203521 | 35 | 216 | 12.9 | 16.1 | 0.00 | 0.00 | 0.00 | 50 | 1013.1 |
| 20260901203017 | 36 | 210 | 6.4 | 9.7 | 0.00 | 0.00 | 0.00 | 50 | 1013.2 |
| 20260901202511 | 35 | 232 | 8.0 | 12.9 | 0.00 | 0.00 | 0.00 | 49 | 1013.3 |
| 20260901202007 | 35 | 210 | 9.7 | 17.7 | 0.00 | 0.00 | 0.00 | 50 | 1013.4 |
| 20260901201502 | 35 | 236 | 6.4 | 16.1 | 0.00 | 0.00 | 0.00 | 52 | 1013.3 |
| 20260901201002 | 35 | 206 | 11.3 | 14.5 | 0.00 | 0.00 | 0.00 | 50 | 1013.5 |
| 20260901200451 | 35 | 242 | 11.3 | 16.1 | 0.00 | 0.00 | 0.00 | 49 | 1013.4 |
| 20260901195950 | 35 | 203 | 9.7 | 14.5 | 0.00 | 0.00 | 0.00 | 51 | 1013.5 |
| 20260901195448 | 35 | 226 | 11.3 | 14.5 | 0.00 | 0.00 | 0.00 | 52 | 1013.5 |
| 20260901194938 | 35 | 232 | 4.8 | 11.3 | 0.00 | 0.00 | 0.00 | 52 | 1013.5 |
| 20260901194432 | 35 | 216 | 8.0 | 11.3 | 0.00 | 0.00 | 0.00 | 51 | 1013.7 |
| 20260901193929 | 35 | 264 | 9.7 | 17.7 | 0.00 | 0.00 | 0.00 | 50 | 1013.9 |
| 20260901193427 | 35 | 172 | 6.4 | 16.1 | 0.00 | 0.00 | 0.00 | 49 | 1013.9 |
| 20260901192922 | 35 | 229 | 8.0 | 16.1 | 0.00 | 0.00 | 0.00 | 49 | 1014.1 |
| 20260901192417 | 35 | 236 | 12.9 | 16.1 | 0.00 | 0.00 | 0.00 | 51 | 1014.1 |
| 20260901191913 | 35 | 200 | 9.7 | 12.9 | 0.00 | 0.00 | 0.00 | 51 | 1014.1 |